ONEWEB-0217, 48245

Orbit data source: Space-Track

ONEWEB-0217, 48245 is a payload satellite owned by One Web (NAA) (UK) in LEO that was launched on Sun, 25 Apr 2021 UTC via a SOYUZ-2-1B launch vehicle from the Vostochny Cosmodrome (VOSTO). Payload-class satellites include a variety of spacecraft equipped with specific instruments for various scientific and technological missions. These include communications satellites like Starlink; space stations such as the ISS; scientific satellites like the Hubble; Earth observation satellites from companies like Planet Labs, Umbra, and HawkEye 360; GPS; miniature CubeSats for education and research; and military/defense satellites.

Loading next visibility...
Identifier
48245, 2021-031AM
Orbit
LEO
Country
Flag of UKUK
Related business
Manufacturer
One Web
Mission
Operational Commercial Communications
Bus & Motor
ARROW, Unknown motor
Mass
148 kg wet, ~140 kg dry
Launch date (UTC)
2021-04-25 (5 years ago)
Launch vehicle
SOYUZ-2-1B
Launch site
Vostochny Cosmodrome (VOSTO)
Object type
Payload
Rocket body
Debris
Shape & HBR
Trap Box + 2 Pan, 6.7 m
Radar Cross Section
3.464 m², Large (>1 m²)

Expand to show TLE details & history
Last TLE update: 20 hours ago

TLE from 20 hours ago
0 ONEWEB-0217
1 48245U 21031AM  26094.07672496 -.00000337  00000-0 -94238-3 0  9996
2 48245  87.8944 304.4862 0001878  76.6330 283.5009 13.14502868238447
Epoch: 2026-04-04T01:50Z
TLE epoch observation values (Epoch: 2026-04-04T01:50:29.036Z)
Latitude
-0.00003°
Longitude
84.46353°
Altitude
1,208.351 km
Speed
7.25 km/s
True Right ascension
20h 17m 56s
True Declination
0° 00' 00"
Sunlit
Object was in daylight at epoch
Visualization orbit readout
Latitude
Unknown
Longitude
Unknown
Altitude
Unknown
Speed
Unknown
Apparent Right ascension
Unknown
Apparent Declination
Unknown
Sunlit
N/A
Visualization observer readout
Local Sidereal Time
04:08:42
Azimuth
Unknown
Elevation
Unknown
Doppler factor
Unknown
Orbital elements
Apogee altitude
1,204.327 km
Perigee altitude
1,201.48 km
Semi-major axis
7,581.041 km
Eccentricity
0.00019
Inclination
87.8944°
RAAN
304.4862°
Arg. of periapsis
76.633°
True anomaly
283.47997°
Mean anomaly
283.5009°
Eccentric anomaly
283.49044°
Mean motion
3.28814 °/min
Orbital period
109.48 mins
BSTAR
-0.00094238
Loading maneuver chart data...
Computing Atmospheric mass density...
Loading historical data...
Loading historical data...
Loading historical data...
Loading historical data...
Loading historical data...
Loading historical data...
Loading historical data...

Documentation

Showing up to 5 results
|